FW5301 Weather Reports


time (UTC)temp
C
wind
direction
speed
KPH
gust
KPH
rain 1hr
cm
rain 24hr
cm
rain mn
cm
humidity
%
barometer
mb
20260507073039 17 192 6.4 17.7 0.00 0.00 0.00 53 1012.1
20260507071525 17 319 1.6 12.9 0.00 0.00 0.00 55 1012.0
20260507070014 17 67 1.6 6.4 0.00 0.00 0.00 58 1011.8
20260507064503 16 45 1.6 8.0 0.00 0.00 0.00 58 1011.7
20260507063057 16 39 1.6 8.0 0.00 0.00 0.00 58 1011.6
20260507061544 16 69 3.2 6.4 0.00 0.00 0.00 58 1011.3
20260507060034 16 68 3.2 8.0 0.00 0.00 0.00 58 1011.4
20260507054523 16 114 6.4 11.3 0.00 0.00 0.00 56 1011.7
20260507053013 15 50 1.6 8.0 0.00 0.00 0.00 58 1011.8
20260507051503 14 56 0.0 4.8 0.00 0.00 0.00 62 1011.5
20260507050057 14 57 1.6 6.4 0.00 0.00 0.00 58 1011.5
20260507044546 15 59 0.0 8.0 0.00 0.00 0.00 58 1011.8
20260507043029 15 12 0.0 1.6 0.00 0.00 0.00 57 1011.8
20260507041518 15 34 0.0 1.6 0.00 0.00 0.00 55 1011.7
20260507040008 15 34 0.0 12.9 0.00 0.00 0.00 55 1011.8
20260507034609 14 18 0.0 6.4 0.00 0.00 0.00 55 1011.6
20260507033052 15 16 0.0 1.6 0.00 0.00 0.00 54 1011.2
20260507031542 15 277 3.2 12.9 0.00 0.00 0.00 52 1011.4
20260507030031 16 300 6.4 20.9 0.00 0.00 0.00 51 1011.2
20260507024519 15 249 6.4 11.3 0.00 0.00 0.00 52 1011.0
20260507023007 16 326 1.6 9.7 0.00 0.00 0.00 51 1010.6
20260507021634 16 234 6.4 16.1 0.00 0.00 0.00 51 1010.8
20260507020105 16 266 3.2 12.9 0.00 0.00 0.00 51 1010.8
20260507014522 16 230 6.4 16.1 0.00 0.00 0.00 51 1010.8
20260507013005 15 271 3.2 12.9 0.00 0.00 0.00 52 1010.8
20260507011600 15 181 1.6 6.4 0.00 0.00 0.00 54 1010.7
20260507010050 16 288 0.0 4.8 0.00 0.00 0.00 52 1010.6
20260507004538 16 263 3.2 6.4 0.00 0.00 0.00 50 1010.4
20260507003015 16 272 3.2 8.0 0.00 0.00 0.00 49 1010.5
20260507001607 16 295 1.6 8.0 0.00 0.00 0.00 49 1010.6
20260507000111 16 249 1.6 8.0 0.00 0.00 0.00 49 1010.7
20260506234543 16 258 1.6 8.0 0.00 0.00 0.00 49 1010.9
20260506233020 16 276 1.6 6.4 0.00 0.00 0.00 49 1010.9
20260506231546 16 279 1.6 6.4 0.00 0.00 0.00 48 1011.0
20260506230031 16 258 3.2 11.3 0.00 0.00 0.00 48 1011.0
20260506224519 16 218 4.8 11.3 0.00 0.00 0.00 50 1011.0
20260506223006 13 295 0.0 3.2 0.00 0.00 0.00 57 1011.0
20260506221604 13 300 0.0 1.6 0.00 0.00 0.00 57 1010.9
20260506220031 15 300 0.0 1.6 0.00 0.00 0.00 54 1010.8
20260506214513 16 300 0.0 1.6 0.00 0.00 0.00 51 1010.9
20260506213058 16 267 0.0 4.8 0.00 0.00 0.00 49 1011.0
20260506211548 16 295 0.0 4.8 0.00 0.00 0.00 48 1011.0
20260506210033 17 285 0.0 4.8 0.00 0.00 0.00 47 1011.0
20260506204516 17 281 1.6 14.5 0.00 0.00 0.00 47 1010.8
20260506203029 17 269 1.6 11.3 0.00 0.00 0.00 47 1010.7
20260506201552 17 258 1.6 8.0 0.00 0.00 0.00 48 1010.7
20260506200031 16 268 1.6 6.4 0.00 0.00 0.00 50 1010.8
20260506194507 16 265 1.6 6.4 0.00 0.00 0.00 48 1010.7
20260506193048 16 322 1.6 8.0 0.00 0.00 0.00 49 1010.6
20260506191513 16 284 0.0 4.8 0.00 0.00 0.00 49 1010.7
20260506190037 16 115 1.6 9.7 0.00 0.00 0.00 51 1010.7
20260506184525 16 299 0.0 1.6 0.00 0.00 0.00 50 1010.7
20260506183013 16 243 1.6 9.7 0.00 0.00 0.00 50 1010.4
20260506181510 16 319 0.0 0.0 0.00 0.00 0.00 53 1010.4
20260506180054 16 319 0.0 0.0 0.00 0.00 0.00 51 1010.4
20260506174538 16 342 0.0 1.6 0.00 0.00 0.00 51 1010.3
20260506173047 17 317 0.0 0.0 0.00 0.00 0.00 49 1010.1
20260506171516 18 317 0.0 6.4 0.00 0.00 0.00 47 1010.2
20260506170006 18 268 0.0 4.8 0.00 0.00 0.00 43 1010.3
20260506164554 19 293 0.0 4.8 0.00 0.00 0.00 41 1010.4
20260506163053 20 282 0.0 8.0 0.00 0.00 0.00 40 1010.5
20260506161532 20 230 8.0 14.5 0.00 0.00 0.00 38 1010.7
20260506160022 20 205 8.0 20.9 0.00 0.00 0.00 37 1010.6
20260506154511 21 276 6.4 16.1 0.00 0.00 0.00 36 1010.6
20260506153001 20 217 9.7 17.7 0.00 0.00 0.00 36 1010.8
20260506151552 21 217 8.0 19.3 0.00 0.00 0.00 35 1010.5
20260506150042 22 249 6.4 22.5 0.00 0.00 0.00 34 1010.7
20260506144514 21 252 3.2 8.0 0.00 0.00 0.00 35 1010.7
20260506143002 21 259 4.8 12.9 0.00 0.00 0.00 33 1010.7
20260506141555 21 11 3.2 19.3 0.00 0.00 0.00 32 1010.9
20260506140040 21 306 8.0 22.5 0.00 0.00 0.00 30 1010.9
20260506134529 22 298 6.4 17.7 0.00 0.00 0.00 29 1010.8
20260506133019 23 108 3.2 14.5 0.00 0.00 0.00 34 1010.9
20260506131509 22 117 6.4 16.1 0.00 0.00 0.00 34 1010.9
20260506130120 21 181 11.3 27.4 0.00 0.00 0.00 35 1010.9
20260506124547 21 281 9.7 20.9 0.00 0.00 0.00 35 1010.9
20260506123034 21 210 9.7 19.3 0.00 0.00 0.00 39 1011.3
20260506121523 21 233 4.8 16.1 0.00 0.00 0.00 40 1011.3
20260506120001 21 239 6.4 20.9 0.00 0.00 0.00 40 1011.4
20260506114550 21 292 8.0 19.3 0.00 0.00 0.00 37 1011.4
20260506113038 21 236 8.0 19.3 0.00 0.00 0.00 40 1011.5
20260506111528 21 26 4.8 19.3 0.00 0.00 0.00 38 1011.7
20260506110013 21 107 6.4 17.7 0.00 0.00 0.00 40 1011.6
20260506104508 21 120 6.4 20.9 0.00 0.00 0.00 39 1011.9
20260506103054 21 189 4.8 20.9 0.00 0.00 0.00 43 1012.2
20260506101548 20 127 1.6 11.3 0.00 0.00 0.00 46 1012.1
20260506100020 19 281 4.8 12.9 0.00 0.00 0.00 43 1012.4
20260506094510 20 75 4.8 16.1 0.00 0.00 0.00 46 1012.4
20260506093101 19 255 4.8 14.5 0.00 0.00 0.00 44 1012.5
20260506091549 19 79 4.8 14.5 0.00 0.00 0.00 45 1012.5
20260506090045 17 259 6.4 19.3 0.00 0.00 0.00 47 1012.5
20260506084530 17 239 3.2 19.3 0.00 0.00 0.00 51 1012.3
20260506083032 17 277 9.7 22.5 0.00 0.00 0.00 48 1012.1
20260506081508 16 233 9.7 19.3 0.00 0.00 0.00 48 1011.9